Sacramento, CA

6:58 PM PST on December 15, 2019 (GMT -0800)
Sacramento Executive

Weather History for KSAC - November, 2019

Change the Weather History Date:

Saturday, November 16, 2019

  Actual Average Record
Temperature  
Mean Temperature 57 °F -  
Max Temperature 69 °F 63 °F 75 °F (1995)
Min Temperature 45 °F 43 °F 30 °F (1964)
Degree Days  
Heating Degree Days 8    
Cooling Degree Days 0    
Growing Degree Days 7 (Base 50)    
Moisture  
Dew Point 47 °F    
Average Humidity 75    
Maximum Humidity 100    
Minimum Humidity 49    
Precipitation  
Precipitation 0.00 in 0.07 in 0.99 in (1950)
Month to date precipitation T 0.96  
Year to date precipitation 19.49 14.15  
Sea Level Pressure  
Sea Level Pressure 30.13 in    
Wind  
Wind Speed 1 mph (ESE)    
Max Wind Speed 6 mph    
Max Gust Speed 7 mph    
Visibility 4 miles    
Events Fog    
T = Trace of Precipitation, MM = Missing Value Source: NWS Daily Summary

Daily Weather History Graph

Daily Weather History Graph

Search for Another Location

Airport or City:

Astronomy

Nov. 16, 2019 Rise Set
Actual Time 6:48 AM PST 4:52 PM PST
Civil Twilight 6:20 AM PST 5:20 PM PST
Nautical Twilight 5:48 AM PST 5:52 PM PST
Astronomical Twilight 5:16 AM PST 6:24 PM PST
Moon 8:31 PM PST 10:46 AM PST
Length of Visible Light 11h 00m
Length of Day
10h 03m
Waning Gibbous, 81% of the Moon is Illuminated
Nov 16
Waning Gibbous
Nov 19
Last Quarter
Nov 26
New
Dec 3
First Quarter
Dec 11
Full

Hourly Weather History & Observations

Time (PST) Temp. Windchill Dew Point Humidity Pressure Visibility Wind Dir Wind Speed Gust Speed Precip Events Conditions
12:53 AM 46.9 °F - 45.0 °F 93% 30.13 in 4.0 mi Calm Calm - N/A   Clear
1:53 AM 48.9 °F - 46.9 °F 93% 30.12 in 8.0 mi Calm Calm - N/A   Clear
2:53 AM 46.0 °F - 44.1 °F 93% 30.12 in 3.0 mi Calm Calm - N/A   Clear
2:55 AM 46.0 °F - 44.1 °F 93% 30.12 in 1.5 mi Calm Calm - N/A   Clear
3:18 AM 46.9 °F - 45.0 °F 93% 30.13 in 1.8 mi Calm Calm - N/A   Clear
3:34 AM 46.9 °F - 45.0 °F 93% 30.13 in 2.5 mi Calm Calm - N/A   Partly Cloudy
3:53 AM 46.0 °F 44.8 °F 45.0 °F 96% 30.12 in 4.0 mi ESE 3.5 mph - N/A   Mostly Cloudy
4:53 AM 48.9 °F - 46.9 °F 93% 30.13 in 5.0 mi Calm Calm - N/A   Overcast
5:53 AM 48.0 °F - 46.0 °F 93% 30.13 in 4.0 mi Calm Calm - N/A   Overcast
6:36 AM 48.0 °F - 46.0 °F 93% 30.15 in 1.5 mi SE 3.5 mph - N/A   Overcast
6:53 AM 46.9 °F - 46.0 °F 97% 30.15 in 0.8 mi Calm Calm - N/A   Mist
6:58 AM 46.9 °F - 46.0 °F 97% 30.15 in 3.0 mi Calm Calm - N/A   Mostly Cloudy
7:53 AM 48.9 °F - 46.9 °F 93% 30.17 in 2.0 mi Calm Calm - N/A   Mostly Cloudy
8:03 AM 48.9 °F - 48.0 °F 97% 30.17 in 1.0 mi Calm Calm - N/A   Overcast
8:53 AM 50.0 °F - 48.9 °F 96% 30.17 in 1.0 mi SE 3.5 mph - N/A   Mist
9:00 AM 50.0 °F - 48.9 °F 96% 30.18 in 0.5 mi Calm Calm - N/A Fog Fog
9:13 AM 50.0 °F - 48.9 °F 96% 30.18 in 1.2 mi Calm Calm - N/A   Overcast
9:43 AM 50.0 °F - 48.9 °F 96% 30.18 in 1.2 mi Calm Calm - N/A   Overcast
9:53 AM 51.1 °F - 48.9 °F 92% 30.18 in 3.0 mi Variable 4.6 mph - N/A   Overcast
10:02 AM 52.0 °F - 48.9 °F 89% 30.18 in 2.0 mi SSE 3.5 mph - N/A   Overcast
10:31 AM 55.0 °F - 50.0 °F 83% 30.17 in 2.0 mi Calm Calm - N/A   Haze
10:39 AM 55.9 °F - 50.0 °F 80% 30.17 in 6.0 mi Calm Calm - N/A   Haze
10:53 AM 57.0 °F - 50.0 °F 77% 30.17 in 6.0 mi Calm Calm - N/A   Haze
11:53 AM 61.0 °F - 50.0 °F 67% 30.13 in 8.0 mi Calm Calm - N/A   Clear
12:53 PM 66.0 °F - 48.0 °F 52% 30.10 in 9.0 mi ESE 3.5 mph - N/A   Clear
1:53 PM 68.0 °F - 48.0 °F 49% 30.08 in 9.0 mi Calm Calm - N/A   Clear
2:53 PM 68.0 °F - 48.0 °F 49% 30.06 in 8.0 mi Calm Calm - N/A   Clear
3:53 PM 66.9 °F - 48.9 °F 52% 30.07 in 9.0 mi Calm Calm - N/A   Clear
4:53 PM 61.0 °F - 50.0 °F 67% 30.07 in 8.0 mi Calm Calm - N/A   Clear
6:53 PM 55.0 °F - 48.9 °F 80% 30.08 in 8.0 mi Calm Calm - N/A   Clear
7:53 PM 52.0 °F - 48.0 °F 86% 30.09 in 6.0 mi Calm Calm - N/A   Clear
8:53 PM 51.1 °F - 48.0 °F 89% 30.10 in 6.0 mi Calm Calm - N/A   Clear
9:53 PM 52.0 °F - 46.9 °F 83% 30.11 in 6.0 mi East 4.6 mph - N/A   Haze
10:53 PM 50.0 °F - 45.0 °F 83% 30.11 in 6.0 mi Calm Calm - N/A   Haze
11:53 PM 48.9 °F - 46.0 °F 90% 30.11 in 5.0 mi Calm Calm - N/A   Clear